Location: Newark
(55.4390°N, 25.0170°E)
Time: 15:15:10
(UTC+00:00)

N. Korean satellite - Visible Passes

Search period start: 08 March 2021 00:00
Search period end: 18 March 2021 00:00
Orbit: 451 x 502 km, 97.2° (Epoch: 07 March)

Date Brightness Start Highest point End Pass type
(mag) Time Alt. Az. Time Alt. Az. Time Alt. Az.
08 Mar 9.1 03:08:52 10° NE 03:11:50 24° E 03:14:49 10° SSE visible
09 Mar 9.8 02:42:52 10° NE 02:44:49 14° E 02:46:46 10° ESE visible
10 Mar 7.2 03:48:11 10° NNE 03:51:45 61° ESE 03:55:20 10° S visible
11 Mar 8.6 03:21:35 10° NNE 03:24:51 32° E 03:28:09 10° SSE visible
12 Mar 9.6 02:55:16 10° NE 02:57:52 18° E 03:00:28 10° SE visible
13 Mar 10.2 02:30:03 10° ENE 02:30:45 10° E 02:31:28 10° E visible
13 Mar 6.7 04:01:03 10° NNE 04:04:40 84° ESE 04:08:19 10° SSW visible
14 Mar 7.9 03:34:19 10° NNE 03:37:48 44° E 03:41:18 10° S visible
15 Mar 9.2 03:07:49 10° NE 03:10:50 24° E 03:13:52 10° SSE visible
16 Mar 9.8 02:41:46 10° NE 02:43:46 14° E 02:45:46 10° ESE visible
17 Mar 7.3 03:47:04 10° NNE 03:50:40 60° ESE 03:54:17 10° S visible
